Location: Julian California
(33.0790°N, 116.6010°W)
Time: 02:14:37
(UTC-07:00)

Cosmos 2151 - Pass Details

Date: 12 July 2018
Orbit: 582 x 601 km, 82.5° (Epoch: 19 September)

Event Time Altitude Azimuth Distance (km) Brightness Sun altitude
Exits shadow 20:43:00 - 161° (SSE) 2,213 5.4 -9.1°
Reaches altitude 10° 20:43:51 10° 156° (SSE) 1,894 5.0 -9.3°
Maximum altitude 20:47:38 34° 91° (E) 967 3.6 -9.9°
Drops below altitude 10° 20:51:25 10° 27° (NNE) 1,901 5.7 -10.6°
Sets 20:53:45 0° 18° (NNE) 2,804 6.7 -11.0°
